| time (UTC) | temp F | wind direction | speed MPH | gust MPH | rain 1hr in | rain 24hr in | rain mn in | humidity % | barometer mb |
| 20260504174305 | 65 | 272 | 7.0 | 13.0 | 0.00 | 0.00 | 0.00 | 42 | 1011.3 |
| 20260504173804 | 66 | 317 | 6.0 | 12.0 | 0.00 | 0.00 | 0.00 | 41 | 1011.2 |
| 20260504173304 | 65 | 267 | 5.0 | 10.0 | 0.00 | 0.00 | 0.00 | 42 | 1011.5 |
| 20260504172804 | 66 | 263 | 3.0 | 9.0 | 0.00 | 0.00 | 0.00 | 43 | 1011.1 |
| 20260504172304 | 65 | 263 | 5.0 | 15.0 | 0.00 | 0.00 | 0.00 | 42 | 1011.2 |
| 20260504170805 | 68 | 263 | 6.0 | 10.0 | 0.00 | 0.00 | 0.00 | 38 | 1010.9 |
| 20260504170304 | 68 | 306 | 5.0 | 10.0 | 0.00 | 0.00 | 0.00 | 40 | 1010.9 |
| 20260504160304 | 67 | 273 | 7.0 | 14.0 | 0.00 | 0.00 | 0.00 | 41 | 1010.8 |
| 20260504150804 | 68 | 255 | 3.0 | 9.0 | 0.00 | 0.02 | 0.00 | 43 | 1010.7 |
| 20260504150304 | 69 | 260 | 6.0 | 16.0 | 0.00 | 0.02 | 0.00 | 42 | 1010.7 |
| 20260504141304 | 69 | 231 | 6.0 | 15.0 | 0.00 | 0.04 | 0.00 | 46 | 1010.7 |
| 20260504140804 | 69 | 237 | 3.0 | 12.0 | 0.00 | 0.04 | 0.00 | 46 | 1011.0 |
| 20260504140304 | 68 | 254 | 3.0 | 9.0 | 0.00 | 0.04 | 0.00 | 46 | 1011.2 |
| 20260504130804 | 66 | 308 | 6.0 | 13.0 | 0.00 | 0.04 | 0.00 | 53 | 1011.7 |
| 20260504120305 | 66 | 237 | 5.0 | 15.0 | 0.00 | 0.62 | 0.00 | 45 | 1011.9 |
| 20260504110304 | 66 | 228 | 7.0 | 13.0 | 0.00 | 0.62 | 0.00 | 53 | 1012.2 |
| 20260504100305 | 63 | 276 | 6.0 | 12.0 | 0.00 | 0.62 | 0.00 | 62 | 1012.4 |
| 20260504081805 | 57 | 228 | 1.0 | 5.0 | 0.00 | 0.62 | 0.00 | 82 | 1013.0 |
| 20260504081304 | 57 | 233 | 3.0 | 6.0 | 0.00 | 0.62 | 0.00 | 83 | 1013.0 |
| 20260504080804 | 56 | 219 | 4.0 | 6.0 | 0.00 | 0.62 | 0.00 | 84 | 1013.2 |
| 20260504080304 | 56 | 236 | 4.0 | 7.0 | 0.00 | 0.62 | 0.00 | 85 | 1013.2 |
| 20260504050304 | 52 | 257 | 1.0 | 2.0 | 0.00 | 0.62 | 0.00 | 93 | 1011.8 |
| 20260504045804 | 52 | 230 | 0.0 | 1.0 | 0.00 | 0.62 | 0.00 | 93 | 1011.9 |
| 20260504045305 | 52 | 242 | 1.0 | 3.0 | 0.00 | 0.62 | 0.00 | 93 | 1011.9 |
| 20260504044805 | 53 | 236 | 2.0 | 3.0 | 0.00 | 0.62 | 0.00 | 93 | 1011.7 |
| 20260504044304 | 53 | 178 | 1.0 | 2.0 | 0.00 | 0.62 | 0.00 | 94 | 1011.9 |
| 20260504043804 | 53 | 200 | 0.0 | 2.0 | 0.00 | 0.62 | 0.00 | 94 | 1011.8 |
| 20260504043304 | 53 | 206 | 0.0 | 1.0 | 0.00 | 0.62 | 0.00 | 94 | 1011.8 |
| 20260504042804 | 53 | 216 | 0.0 | 2.0 | 0.00 | 0.62 | 0.00 | 94 | 1011.8 |
| 20260504042305 | 53 | 140 | 2.0 | 3.0 | 0.00 | 0.62 | 0.00 | 95 | 1011.8 |
| 20260504041804 | 53 | 142 | 1.0 | 2.0 | 0.00 | 0.62 | 0.00 | 95 | 1011.7 |
| 20260504041304 | 53 | 142 | 1.0 | 2.0 | 0.00 | 0.62 | 0.00 | 96 | 1011.9 |
| 20260504040804 | 53 | 78 | 0.0 | 0.0 | 0.00 | 0.62 | 0.00 | 96 | 1012.1 |
| 20260504040305 | 53 | 62 | 0.0 | 0.0 | 0.00 | 0.62 | 0.00 | 96 | 1012.0 |
| 20260504035804 | 53 | 108 | 0.0 | 0.0 | 0.00 | 0.62 | 0.00 | 96 | 1012.0 |
| 20260504035305 | 53 | 125 | 0.0 | 0.0 | 0.00 | 0.62 | 0.00 | 96 | 1012.0 |
| 20260504033804 | 53 | 256 | 1.0 | 2.0 | 0.00 | 0.62 | 0.00 | 95 | 1012.4 |
| 20260504032805 | 54 | 255 | 2.0 | 7.0 | 0.00 | 0.62 | 0.00 | 95 | 1012.7 |
| 20260504032304 | 54 | 264 | 1.0 | 3.0 | 0.00 | 0.62 | 0.00 | 95 | 1012.5 |
| 20260504031804 | 54 | 144 | 2.0 | 5.0 | 0.00 | 0.62 | 0.00 | 95 | 1012.1 |
| 20260504031304 | 54 | 126 | 2.0 | 5.0 | 0.00 | 0.62 | 0.00 | 95 | 1011.9 |
| 20260504025804 | 54 | 110 | 2.0 | 5.0 | 0.00 | 0.62 | 0.00 | 95 | 1011.9 |
| 20260504024804 | 54 | 80 | 2.0 | 6.0 | 0.00 | 0.62 | 0.00 | 95 | 1012.0 |
| 20260504024304 | 54 | 88 | 2.0 | 5.0 | 0.00 | 0.62 | 0.00 | 95 | 1011.8 |
| 20260504023804 | 54 | 105 | 2.0 | 5.0 | 0.00 | 0.62 | 0.00 | 95 | 1011.8 |
| 20260504022804 | 54 | 129 | 2.0 | 3.0 | 0.00 | 0.62 | 0.00 | 95 | 1011.9 |
| 20260504022305 | 54 | 121 | 2.0 | 6.0 | 0.00 | 0.62 | 0.00 | 95 | 1012.2 |
| 20260504021804 | 54 | 128 | 2.0 | 5.0 | 0.00 | 0.62 | 0.00 | 95 | 1012.1 |
| 20260504020804 | 54 | 121 | 2.0 | 3.0 | 0.00 | 0.62 | 0.00 | 95 | 1012.2 |
| 20260504020305 | 54 | 130 | 3.0 | 6.0 | 0.00 | 0.62 | 0.00 | 95 | 1012.4 |
| 20260504015804 | 54 | 143 | 3.0 | 5.0 | 0.00 | 0.62 | 0.00 | 95 | 1012.3 |
| 20260504015305 | 54 | 158 | 1.0 | 3.0 | 0.00 | 0.62 | 0.00 | 95 | 1012.3 |
| 20260504014804 | 54 | 120 | 2.0 | 6.0 | 0.00 | 0.62 | 0.00 | 95 | 1012.4 |
| 20260504014304 | 54 | 128 | 2.0 | 5.0 | 0.00 | 0.62 | 0.00 | 95 | 1012.4 |
| 20260504013804 | 54 | 135 | 2.0 | 5.0 | 0.00 | 0.62 | 0.00 | 95 | 1012.3 |
| 20260504011804 | 54 | 182 | 1.0 | 2.0 | 0.00 | 0.62 | 0.00 | 95 | 1012.8 |
| 20260504011304 | 54 | 177 | 1.0 | 3.0 | 0.00 | 0.62 | 0.00 | 95 | 1012.9 |
| 20260504010804 | 55 | 149 | 2.0 | 5.0 | 0.00 | 0.62 | 0.00 | 95 | 1012.9 |
| 20260504010304 | 55 | 120 | 1.0 | 6.0 | 0.00 | 0.62 | 0.00 | 95 | 1012.9 |
| 20260504005804 | 55 | 92 | 2.0 | 6.0 | 0.00 | 0.62 | 0.00 | 95 | 1013.0 |
| 20260504005305 | 55 | 128 | 3.0 | 7.0 | 0.00 | 0.62 | 0.00 | 95 | 1013.0 |
| 20260504004804 | 55 | 147 | 2.0 | 5.0 | 0.00 | 0.62 | 0.00 | 95 | 1012.7 |
| 20260504004304 | 55 | 106 | 2.0 | 5.0 | 0.00 | 0.62 | 0.00 | 95 | 1012.8 |
| 20260504003805 | 55 | 134 | 3.0 | 6.0 | 0.00 | 0.62 | 0.00 | 95 | 1013.0 |
| 20260504003304 | 55 | 136 | 3.0 | 6.0 | 0.00 | 0.62 | 0.00 | 95 | 1013.1 |
| 20260504002304 | 55 | 96 | 3.0 | 7.0 | 0.00 | 0.62 | 0.00 | 95 | 1013.3 |
| 20260504001804 | 55 | 133 | 3.0 | 7.0 | 0.00 | 0.62 | 0.00 | 95 | 1013.2 |
| 20260504001304 | 55 | 121 | 3.0 | 8.0 | 0.00 | 0.62 | 0.00 | 95 | 1012.8 |
| 20260504000804 | 55 | 118 | 3.0 | 7.0 | 0.00 | 0.62 | 0.00 | 95 | 1012.5 |
| 20260504000304 | 55 | 124 | 3.0 | 6.0 | 0.00 | 0.62 | 0.00 | 95 | 1012.4 |
| 20260503235804 | 55 | 128 | 2.0 | 7.0 | 0.00 | 0.62 | 0.00 | 95 | 1012.7 |
| 20260503235304 | 55 | 140 | 2.0 | 6.0 | 0.00 | 0.62 | 0.00 | 95 | 1012.7 |
| 20260503234804 | 55 | 119 | 2.0 | 8.0 | 0.00 | 0.62 | 0.00 | 95 | 1012.8 |
| 20260503233804 | 55 | 125 | 2.0 | 7.0 | 0.00 | 0.62 | 0.00 | 94 | 1012.9 |
| 20260503233304 | 55 | 72 | 3.0 | 6.0 | 0.00 | 0.62 | 0.00 | 94 | 1012.9 |
| 20260503232804 | 55 | 138 | 3.0 | 7.0 | 0.00 | 0.62 | 0.00 | 94 | 1013.0 |
| 20260503232305 | 55 | 113 | 3.0 | 8.0 | 0.00 | 0.62 | 0.00 | 94 | 1012.9 |
| 20260503231805 | 55 | 135 | 3.0 | 7.0 | 0.00 | 0.62 | 0.00 | 94 | 1013.0 |
| 20260503231304 | 55 | 143 | 2.0 | 6.0 | 0.00 | 0.62 | 0.00 | 94 | 1012.9 |
| 20260503230804 | 55 | 132 | 3.0 | 8.0 | 0.00 | 0.62 | 0.00 | 94 | 1012.9 |
| 20260503230304 | 55 | 166 | 2.0 | 6.0 | 0.00 | 0.62 | 0.00 | 94 | 1013.0 |
| 20260503225804 | 55 | 148 | 2.0 | 6.0 | 0.00 | 0.62 | 0.00 | 94 | 1013.1 |
| 20260503225305 | 55 | 121 | 2.0 | 6.0 | 0.00 | 0.62 | 0.00 | 94 | 1013.4 |
| 20260503224304 | 56 | 107 | 2.0 | 8.0 | 0.00 | 0.62 | 0.00 | 93 | 1013.4 |
| 20260503223804 | 56 | 103 | 2.0 | 7.0 | 0.00 | 0.62 | 0.00 | 93 | 1013.3 |
| 20260503223304 | 56 | 107 | 2.0 | 7.0 | 0.00 | 0.62 | 0.00 | 93 | 1013.2 |
| 20260503222804 | 56 | 94 | 3.0 | 6.0 | 0.00 | 0.62 | 0.00 | 93 | 1013.2 |
| 20260503222304 | 56 | 113 | 3.0 | 6.0 | 0.00 | 0.62 | 0.00 | 93 | 1013.3 |
| 20260503221804 | 56 | 165 | 2.0 | 6.0 | 0.00 | 0.62 | 0.00 | 93 | 1013.3 |
| 20260503220804 | 56 | 94 | 3.0 | 7.0 | 0.00 | 0.62 | 0.00 | 93 | 1013.4 |
| 20260503215804 | 56 | 134 | 3.0 | 6.0 | 0.00 | 0.62 | 0.62 | 93 | 1013.4 |
| 20260503215304 | 56 | 116 | 2.0 | 7.0 | 0.00 | 0.62 | 0.62 | 92 | 1013.3 |
| 20260503214804 | 56 | 130 | 3.0 | 8.0 | 0.00 | 0.62 | 0.62 | 92 | 1013.5 |
| 20260503214304 | 56 | 110 | 3.0 | 6.0 | 0.00 | 0.62 | 0.62 | 92 | 1013.5 |
| 20260503213804 | 57 | 143 | 2.0 | 5.0 | 0.00 | 0.62 | 0.62 | 92 | 1013.4 |
| 20260503213304 | 57 | 143 | 2.0 | 6.0 | 0.00 | 0.62 | 0.62 | 92 | 1013.5 |
| 20260503212804 | 57 | 116 | 3.0 | 7.0 | 0.00 | 0.62 | 0.62 | 92 | 1013.5 |
| 20260503211804 | 57 | 108 | 2.0 | 6.0 | 0.00 | 0.62 | 0.62 | 92 | 1013.5 |
| 20260503210804 | 57 | 134 | 3.0 | 6.0 | 0.00 | 0.62 | 0.62 | 91 | 1013.4 |
| 20260503210305 | 58 | 102 | 3.0 | 7.0 | 0.00 | 0.62 | 0.62 | 91 | 1013.3 |
| 20260503205804 | 58 | 120 | 3.0 | 8.0 | 0.00 | 0.62 | 0.62 | 90 | 1013.3 |
| 20260503205304 | 58 | 157 | 1.0 | 6.0 | 0.00 | 0.62 | 0.62 | 90 | 1013.1 |
| 20260503204804 | 58 | 154 | 2.0 | 7.0 | 0.00 | 0.62 | 0.62 | 90 | 1013.1 |
| 20260503203804 | 58 | 88 | 3.0 | 7.0 | 0.00 | 0.62 | 0.62 | 89 | 1013.1 |
| 20260503203304 | 59 | 75 | 2.0 | 9.0 | 0.00 | 0.62 | 0.62 | 89 | 1012.9 |
| 20260503202804 | 59 | 102 | 4.0 | 9.0 | 0.00 | 0.62 | 0.62 | 89 | 1012.7 |
| 20260503201804 | 59 | 143 | 1.0 | 6.0 | 0.00 | 0.62 | 0.62 | 86 | 1012.7 |
| 20260503201304 | 60 | 154 | 3.0 | 6.0 | 0.00 | 0.62 | 0.62 | 84 | 1012.6 |
| 20260503200304 | 60 | 79 | 1.0 | 3.0 | 0.00 | 0.62 | 0.62 | 69 | 1012.4 |
| 20260503195804 | 61 | 102 | 1.0 | 2.0 | 0.00 | 0.62 | 0.62 | 68 | 1012.3 |
| 20260503195305 | 61 | 124 | 1.0 | 2.0 | 0.00 | 0.62 | 0.62 | 66 | 1012.3 |
| 20260503194804 | 61 | 137 | 0.0 | 1.0 | 0.00 | 0.62 | 0.62 | 66 | 1012.3 |
| 20260503194304 | 61 | 211 | 1.0 | 1.0 | 0.00 | 0.62 | 0.62 | 66 | 1012.2 |
| 20260503193805 | 61 | 234 | 0.0 | 2.0 | 0.00 | 0.62 | 0.62 | 66 | 1012.0 |
| 20260503193304 | 61 | 167 | 1.0 | 1.0 | 0.00 | 0.62 | 0.62 | 68 | 1012.1 |
| 20260503192804 | 62 | 215 | 0.0 | 1.0 | 0.00 | 0.62 | 0.62 | 67 | 1012.0 |
| 20260503192305 | 62 | 163 | 1.0 | 2.0 | 0.00 | 0.62 | 0.62 | 66 | 1011.8 |
| 20260503191805 | 62 | 156 | 1.0 | 2.0 | 0.00 | 0.62 | 0.62 | 66 | 1011.8 |
| 20260503191304 | 62 | 146 | 1.0 | 2.0 | 0.00 | 0.62 | 0.62 | 67 | 1011.9 |
| 20260503190304 | 62 | 149 | 1.0 | 1.0 | 0.00 | 0.62 | 0.62 | 66 | 1011.7 |
| 20260503185804 | 62 | 201 | 0.0 | 1.0 | 0.00 | 0.62 | 0.62 | 65 | 1011.6 |
| 20260503185305 | 63 | 220 | 0.0 | 1.0 | 0.00 | 0.62 | 0.62 | 65 | 1011.4 |
| 20260503184804 | 63 | 231 | 1.0 | 2.0 | 0.00 | 0.62 | 0.62 | 63 | 1011.4 |
| 20260503184304 | 63 | 267 | 1.0 | 2.0 | 0.00 | 0.62 | 0.62 | 62 | 1011.4 |
| 20260503183804 | 63 | 269 | 1.0 | 3.0 | 0.00 | 0.62 | 0.62 | 62 | 1011.4 |
| 20260503183304 | 63 | 247 | 1.0 | 5.0 | 0.00 | 0.62 | 0.62 | 63 | 1011.2 |
| 20260503182804 | 64 | 273 | 2.0 | 5.0 | 0.00 | 0.62 | 0.62 | 62 | 1011.2 |
| 20260503182305 | 64 | 262 | 2.0 | 6.0 | 0.00 | 0.62 | 0.62 | 61 | 1011.2 |
| 20260503181804 | 64 | 264 | 3.0 | 7.0 | 0.00 | 0.62 | 0.62 | 61 | 1011.2 |
| 20260503181304 | 64 | 255 | 2.0 | 7.0 | 0.00 | 0.62 | 0.62 | 63 | 1011.3 |
| 20260503180804 | 64 | 263 | 3.0 | 7.0 | 0.00 | 0.62 | 0.62 | 62 | 1011.1 |
| 20260503180304 | 64 | 271 | 3.0 | 10.0 | 0.00 | 0.62 | 0.62 | 61 | 1011.1 |
| 20260503175804 | 65 | 237 | 3.0 | 7.0 | 0.00 | 0.62 | 0.62 | 60 | 1010.9 |
| 20260503175305 | 65 | 215 | 2.0 | 7.0 | 0.00 | 0.62 | 0.62 | 59 | 1010.9 |